Regional Weather Roundup
Issued by NWS

Home | Current Version | Previous Version | Graphics & Text | Print | Product List | Glossary On
Versions: 1 2 3 4 5 6 7 8 9 10 11 12 13 14 15 16 17 18 19 20 21 22 23 24 25 26 27 28 29 30 31 32 33 34 35 36 37 38 39 40 41 42 43 44 45 46 47 48 49 50
000
ASUS43 KDTX 050601
RWRMI
MICHIGAN HOURLY REGIONAL WEATHER ROUNDUP
NATIONAL WEATHER SERVICE DETROIT/PONTIAC MI
200 AM EDT SAT SEP 05 2015

NOTE: "FAIR" INDICATES FEW OR NO CLOUDS BELOW 12,000 FEET WITH NO
SIGNIFICANT WEATHER AND/OR OBSTRUCTION TO VISIBILITY.

MIZ047>049-052>055-059>063-066>070-074>076-081>083-050700-
SOUTHEAST LOWER MICHIGAN

CITY           SKY/WX    TMP DP  RH WIND       PRES   REMARKS
ADRIAN         PTCLDY    68  67  96 CALM      30.09S
6HR MIN TEMP:  68; 6HR MAX TEMP:  75;

ALMA           FOG       64  64  99 CALM      30.08S VSB 1/4
ANN ARBOR      FOG       68  67  96 W3        30.08R VSB 1/4
BAD AXE        PTCLDY    68  67  96 CALM      30.09S FOG
6HR MIN TEMP:  68; 6HR MAX TEMP:  73;

CARO           CLOUDY    69  69  99 CALM      30.06F FOG
DETROIT CITY   CLEAR     70  67  90 S5        30.07S
6HR MIN TEMP:  70; 6HR MAX TEMP:  76;

DETROIT        CLOUDY    70  69  97 S5        30.08R FOG
6HR MIN TEMP:  70; 6HR MAX TEMP:  76;

FLINT          PTCLDY    71  67  87 CALM      30.07S FOG
6HR MIN TEMP:  69; 6HR MAX TEMP:  77;

GROSSE ILE     CLEAR     72  70  94 S8        30.06S
HILLSDALE      CLOUDY    71  71 100 S5        30.10R FOG
HOWELL         FOG       69  69  98 CALM      30.09R VSB 1/2
6HR MIN TEMP:  67; 6HR MAX TEMP:  76;


CITY           SKY/WX    TMP DP  RH WIND       PRES   REMARKS
JACKSON        MOCLDY    68  66  93 CALM      30.08S
6HR MIN TEMP:  65; 6HR MAX TEMP:  74;

LAMBERTVILLE   CLEAR     70  66  87 CALM      30.08S
6HR MIN TEMP:  69; 6HR MAX TEMP:  78;

LANSING        PTCLDY    66  65  96 CALM      30.08R
6HR MIN TEMP:  65; 6HR MAX TEMP:  74;

LAPEER         FAIR      67  67 100 CALM      30.08S
6HR MIN TEMP:  66; 6HR MAX TEMP:  74;

MASON          CLOUDY    66  64  92 CALM      30.08S FOG
MONROE         PTCLDY    67  65  94 CALM      30.07S
6HR MIN TEMP:  67; 6HR MAX TEMP:  74;

MT. CLEMENS    FOG       68  68  98 SW3       30.06R VSB 1/2
6HR MIN TEMP:  68; 6HR MAX TEMP:  74;

PONTIAC        MOCLDY    69  68  96 CALM        N/A
6HR MIN TEMP:  68; 6HR MAX TEMP:  76;

PORT HOPE        N/A     69  64  84 S5        30.07S
6HR MIN TEMP:  69; 6HR MAX TEMP:  74;

PORT HURON     PTCLDY    68  68 100 CALM      30.08R FOG
TRI CITIES     CLOUDY    71  68  90 CALM      30.07S FOG
6HR MIN TEMP:  69; 6HR MAX TEMP:  75;

MIDLAND        FOG       68  68  98 CALM      30.06S VSB 1/2
TROY           CLOUDY    72  70  93 CALM      30.09S
SAGINAW HB     MOCLDY    68  68 100 CALM      30.06S FOG
$$
MIZ043>046-050>051-056>058-064>065-071>073-077>080-050700-
SOUTHWEST LOWER MICHIGAN

CITY           SKY/WX    TMP DP  RH WIND       PRES   REMARKS
BATTLE CREEK   CLOUDY    69  66  90 CALM      30.08S
6HR MIN TEMP:  68; 6HR MAX TEMP:  77;

BENTON HARBOR  MOCLDY    69  66  90 CALM      30.07R
6HR MIN TEMP:  65; 6HR MAX TEMP:  70; 6HR PCP: TRACE;

BIG RAPIDS     FOG       67  66  97 CALM      30.07S VSB 1/4
6HR MIN TEMP:  65; 6HR MAX TEMP:  70;

COLDWATER      CLOUDY    70  69  95 SW5       30.09S
6HR MIN TEMP:  69; 6HR MAX TEMP:  74;

FREMONT        FOG       63  63 100 CALM      30.07R VSB 1/4
HOLLAND        CLOUDY    64  62  93 CALM      30.08R FOG
6HR MIN TEMP:  63; 6HR MAX TEMP:  73;

GRAND RAPIDS   FOG       67  66  97 SE3       30.07S VSB 3/4
6HR MIN TEMP:  67; 6HR MAX TEMP:  75;

IONIA          MOCLDY    65  65 100 CALM      30.07S FOG
6HR MIN TEMP:  64; 6HR MAX TEMP:  72;

KALAMAZOO      MOCLDY    70  66  87 CALM      30.08S
6HR MIN TEMP:  67; 6HR MAX TEMP:  77;

LUDINGTON      FOG       68  66  93 CALM      30.06S VSB<1/4
6HR MIN TEMP:  66; 6HR MAX TEMP:  73;

MARSHALL       PTCLDY    68  67  97 CALM      30.07S FOG
MOUNT PLEASANT FOG       70  68  94 CALM      30.06S VSB 1/2
6HR MIN TEMP:  70; 6HR MAX TEMP:  73;

MUSKEGON       CLEAR     65  62  90 CALM      30.07R
6HR MIN TEMP:  64; 6HR MAX TEMP:  73;

SOUTH HAVEN    CLOUDY    65  64  95 CALM      30.07S FOG
$$
MIZ016>042-050700-
NORTHERN LOWER MICHIGAN

CITY           SKY/WX    TMP DP  RH WIND       PRES   REMARKS
ALPENA         CLOUDY    69  65  86 SE6       30.09S
6HR MIN TEMP:  68; 6HR MAX TEMP:  74;

BEAVER ISLAND  CLOUDY    67  66  97 CALM      30.07R FOG
6HR MIN TEMP:  66; 6HR MAX TEMP:  70;

BELLAIRE       FOG       66  64  96 CALM      30.06S VSB 1/2
6HR MIN TEMP:  65; 6HR MAX TEMP:  71;

CADILLAC       CLOUDY    65  65  99 CALM      30.08S
CHARLEVOIX     CLOUDY    70  69  97 SE3       30.09S
FRANKFORT      CLEAR     67  67  98 CALM      30.05S FOG
GAYLORD        CLOUDY    68  67  96 CALM      30.09F FOG
6HR MIN TEMP:  68; 6HR MAX TEMP:  70; 6HR PCP:  0.14;

GRAYLING       CLOUDY    68  67  98 CALM      30.09S FOG
6HR MIN TEMP:  67; 6HR MAX TEMP:  70;

HARBOR SPRINGS CLOUDY    69  66  88 E7        30.07F
HOUGHTON LAKE  CLOUDY    69  67  93 E3        30.09S FOG
6HR MIN TEMP:  67; 6HR MAX TEMP:  71;

MANISTEE       CLOUDY    64  61  88 CALM      30.06S VSB 1/4
OSCODA         MOCLDY    71  68  91 SE5       30.07S
6HR MIN TEMP:  70; 6HR MAX TEMP:  72;

PELLSTON       CLOUDY    65  64  97 CALM      30.08
6HR MIN TEMP:  65; 6HR MAX TEMP:  74;

ROGERS CITY    PTCLDY    68  63  84 CALM      30.10S
TRAVERSE CITY  CLOUDY    70  68  93 CALM      30.04S
6HR MIN TEMP:  70; 6HR MAX TEMP:  74;

$$
MIZ007>008-015-050700-
EASTERN UPPER MICHIGAN

CITY           SKY/WX    TMP DP  RH WIND       PRES   REMARKS
KINROSS        CLEAR     72  61  68 SE10      30.09S
6HR MIN TEMP:  70; 6HR MAX TEMP:  73;

MACKINAC ISLAN PTCLDY    67  63  87 E10       30.08S
NEWBERRY       PTCLDY    66  63  89 E5        30.08F
6HR MIN TEMP:  66; 6HR MAX TEMP:  74;

S. S. MARIE    CLEAR     68  62  81 E5        30.09F
6HR MIN TEMP:  67; 6HR MAX TEMP:  74;

$$
MIZ004>006-011>014-085-050700-
CENTRAL UPPER MICHIGAN

CITY           SKY/WX    TMP DP  RH WIND       PRES   REMARKS
MANISTIQUE     MOCLDY    67  65  93 CALM      30.06S
6HR MIN TEMP:  67; 6HR MAX TEMP:  71;

ESCANABA       CLOUDY    64  64 100 W6        30.05S
6HR MIN TEMP:  64; 6HR MAX TEMP:  72;

MENOMINEE      CLOUDY    66  63  88 CALM      30.06R
6HR MIN TEMP:  64; 6HR MAX TEMP:  70;

SAWYER-GWINN   CLOUDY    67  65  91 W5        30.09S
6HR MIN TEMP:  66; 6HR MAX TEMP:  73;

$$
MIZ001>003-009>011-084-050700-
WESTERN UPPER MICHIGAN

CITY           SKY/WX    TMP DP  RH WIND       PRES   REMARKS
IRON MOUNTAIN  CLOUDY    65  63  93 W3        30.09R
6HR MIN TEMP:  62; 6HR MAX TEMP:  75;

HOUGHTON       CLEAR     60  58  92 E5        30.06S
6HR MIN TEMP:  59; 6HR MAX TEMP:  66;

COPPER HARBOR    N/A     68  64  87 SW3       30.06R
6HR MIN TEMP:  66; 6HR MAX TEMP:  71;

IRONWOOD       CLEAR     70  66  88 E7        30.01S
6HR MIN TEMP:  70; 6HR MAX TEMP:  81;

$$

ABBREVIATIONS USED IN REMARKS
   TC - TEMPERATURE IN CELSIUS
  WCI - WIND CHILL INDEX
   HX - HEAT INDEX
  VSB - VISIBILITY



USA.gov is the U.S. government's official web portal to all federal, state and local government web resources and services.